TimeEDT,TemperatureF,Dew PointF,Humidity,Sea Level PressureIn,VisibilityMPH,Wind Direction,Wind SpeedMPH,Gust SpeedMPH,PrecipitationIn,Events,Conditions,WindDirDegrees,DateUTC
12:15 AM,45.7,45.7,100,30.13,10.0,Calm,Calm,-,N/A,,Clear,0,2012-10-23 04:15:00
12:35 AM,46.4,46.4,100,30.13,10.0,Calm,Calm,-,N/A,,Clear,0,2012-10-23 04:35:00
1:35 AM,46.9,46.9,100,30.13,10.0,Calm,Calm,-,N/A,,Clear,0,2012-10-23 05:35:00
2:15 AM,45.7,45.7,100,30.11,10.0,Calm,Calm,-,N/A,,Clear,0,2012-10-23 06:15:00
2:55 AM,46.4,46.4,100,30.11,10.0,Calm,Calm,-,N/A,,Clear,0,2012-10-23 06:55:00
3:35 AM,48.4,48.4,100,30.11,10.0,Calm,Calm,-,N/A,,Clear,0,2012-10-23 07:35:00
3:55 AM,47.8,47.8,100,30.11,10.0,SSW,3.5,-,N/A,,Clear,210,2012-10-23 07:55:00
4:15 AM,48.7,48.7,100,30.10,10.0,SW,3.5,-,N/A,,Clear,220,2012-10-23 08:15:00
4:35 AM,48.6,48.4,99,30.10,10.0,WSW,3.5,-,N/A,,Clear,240,2012-10-23 08:35:00
4:55 AM,47.1,47.1,100,30.10,10.0,Calm,Calm,-,N/A,,Clear,0,2012-10-23 08:55:00
5:15 AM,47.1,47.1,100,30.11,10.0,Calm,Calm,-,N/A,,Clear,0,2012-10-23 09:15:00
5:35 AM,46.8,46.8,100,30.11,10.0,Calm,Calm,-,N/A,,Clear,0,2012-10-23 09:35:00
5:55 AM,45.5,45.5,100,30.11,10.0,Calm,Calm,-,N/A,,Clear,0,2012-10-23 09:55:00
6:15 AM,46.4,46.4,100,30.10,10.0,Calm,Calm,-,N/A,,Clear,0,2012-10-23 10:15:00
6:55 AM,45.9,45.9,100,30.11,10.0,Calm,Calm,-,N/A,,Clear,0,2012-10-23 10:55:00
7:15 AM,45.9,45.9,100,30.11,10.0,Calm,Calm,-,N/A,,Clear,0,2012-10-23 11:15:00
7:35 AM,46.4,46.4,100,30.11,10.0,Calm,Calm,-,N/A,,Clear,0,2012-10-23 11:35:00
8:15 AM,48.7,48.7,100,30.13,10.0,Calm,Calm,-,N/A,,Clear,0,2012-10-23 12:15:00
9:55 AM,60.6,55.4,83,30.13,10.0,Calm,Calm,-,N/A,,Scattered Clouds,0,2012-10-23 13:55:00
10:15 AM,63.1,56.3,78,30.14,10.0,Calm,Calm,-,N/A,,Scattered Clouds,0,2012-10-23 14:15:00
10:35 AM,64.4,56.7,76,30.13,10.0,Calm,Calm,-,N/A,,Scattered Clouds,0,2012-10-23 14:35:00
11:15 AM,70.0,58.8,68,30.11,10.0,Calm,Calm,-,N/A,,Clear,0,2012-10-23 15:15:00
11:55 AM,72.7,59.4,63,30.12,10.0,Calm,Calm,-,N/A,,Scattered Clouds,0,2012-10-23 15:55:00
12:15 PM,74.5,60.6,62,30.11,10.0,Calm,Calm,-,N/A,,Scattered Clouds,0,2012-10-23 16:15:00
12:35 PM,77.0,62.1,60,30.10,10.0,South,3.5,-,N/A,,Clear,190,2012-10-23 16:35:00
12:55 PM,77.9,61.2,56,30.10,10.0,Calm,Calm,-,N/A,,Clear,0,2012-10-23 16:55:00
1:15 PM,79.5,60.3,52,30.08,10.0,Calm,Calm,-,N/A,,Clear,0,2012-10-23 17:15:00
1:35 PM,79.7,59.7,50,30.08,10.0,Calm,Calm,-,N/A,,Clear,0,2012-10-23 17:35:00
1:55 PM,81.0,61.7,52,30.07,10.0,SW,3.5,-,N/A,,Clear,230,2012-10-23 17:55:00
2:15 PM,81.0,61.7,52,30.06,10.0,SSW,5.8,-,N/A,,Clear,210,2012-10-23 18:15:00
2:35 PM,82.0,62.4,51,30.05,10.0,SW,4.6,-,N/A,,Clear,230,2012-10-23 18:35:00
2:55 PM,83.5,62.4,49,30.05,10.0,SSW,3.5,-,N/A,,Clear,200,2012-10-23 18:55:00
3:15 PM,82.8,62.2,50,30.04,10.0,South,6.9,-,N/A,,Clear,170,2012-10-23 19:15:00
3:35 PM,82.4,62.4,51,30.04,10.0,SSW,5.8,-,N/A,,Clear,210,2012-10-23 19:35:00
3:55 PM,81.5,62.6,53,30.04,10.0,SW,4.6,-,N/A,,Clear,230,2012-10-23 19:55:00
4:15 PM,83.3,62.4,49,30.03,10.0,SSW,5.8,-,N/A,,Clear,200,2012-10-23 20:15:00
4:35 PM,83.1,62.2,49,30.03,10.0,SSW,5.8,-,N/A,,Clear,210,2012-10-23 20:35:00
4:55 PM,80.8,63.0,54,30.03,10.0,Calm,Calm,-,N/A,,Clear,0,2012-10-23 20:55:00
5:15 PM,81.7,62.4,52,30.03,10.0,SSW,4.6,-,N/A,,Clear,200,2012-10-23 21:15:00
5:35 PM,80.2,62.4,54,30.03,10.0,South,3.5,-,N/A,,Clear,190,2012-10-23 21:35:00
5:55 PM,77.0,62.6,61,30.03,10.0,Calm,Calm,-,N/A,,Clear,0,2012-10-23 21:55:00
6:15 PM,72.3,63.3,73,30.04,10.0,Calm,Calm,-,N/A,,Clear,0,2012-10-23 22:15:00
6:35 PM,66.7,62.1,85,30.04,10.0,Calm,Calm,-,N/A,,Clear,0,2012-10-23 22:35:00
6:55 PM,67.8,62.1,82,30.04,10.0,Calm,Calm,-,N/A,,Clear,0,2012-10-23 22:55:00
7:15 PM,65.5,62.1,89,30.05,10.0,Calm,Calm,-,N/A,,Clear,0,2012-10-23 23:15:00
7:35 PM,66.0,61.9,86,30.05,10.0,Calm,Calm,-,N/A,,Clear,0,2012-10-23 23:35:00
7:55 PM,63.5,61.3,93,30.05,10.0,Calm,Calm,-,N/A,,Clear,0,2012-10-23 23:55:00
8:15 PM,62.4,61.3,96,30.06,10.0,Calm,Calm,-,N/A,,Clear,0,2012-10-24 00:15:00
8:35 PM,63.9,61.9,93,30.06,10.0,Calm,Calm,-,N/A,,Clear,0,2012-10-24 00:35:00
8:55 PM,62.2,61.2,96,30.06,10.0,Calm,Calm,-,N/A,,Clear,0,2012-10-24 00:55:00
9:15 PM,60.6,60.6,100,30.07,10.0,Calm,Calm,-,N/A,,Clear,0,2012-10-24 01:15:00
9:35 PM,60.8,60.6,99,30.07,10.0,Calm,Calm,-,N/A,,Clear,0,2012-10-24 01:35:00
9:55 PM,59.4,59.4,100,30.08,10.0,Calm,Calm,-,N/A,,Clear,0,2012-10-24 01:55:00
10:15 PM,59.4,59.4,100,30.08,10.0,South,3.5,-,N/A,,Clear,170,2012-10-24 02:15:00
10:35 PM,63.5,60.3,89,30.07,10.0,South,3.5,-,N/A,,Clear,170,2012-10-24 02:35:00
10:55 PM,60.1,58.6,95,30.07,10.0,Calm,Calm,-,N/A,,Clear,0,2012-10-24 02:55:00
11:15 PM,58.8,58.6,99,30.07,10.0,South,3.5,-,N/A,,Clear,190,2012-10-24 03:15:00
11:35 PM,57.0,57.0,100,30.07,10.0,Calm,Calm,-,N/A,,Clear,0,2012-10-24 03:35:00
11:55 PM,58.1,57.7,99,30.07,10.0,Calm,Calm,-,N/A,,Clear,0,2012-10-24 03:55:00